Weather History for KACP - February, 2014

Change the Weather History Date:

Saturday, February 15, 2014

  Actual Average (KPOE) Record (KPOE)
Temperature  
Mean Temperature 47 °F -  
Max Temperature 64 °F 62 °F 78 °F (2000)
Min Temperature 30 °F 43 °F 28 °F (2007)
Degree Days  
Heating Degree Days 18    
Moisture  
Dew Point 34 °F    
Average Humidity 71    
Maximum Humidity 98    
Minimum Humidity 28    
Precipitation  
Precipitation 0.02 in - - ()
Sea Level Pressure  
Sea Level Pressure 30.14 in    
Wind  
Wind Speed 1 mph (East)    
Max Wind Speed 8 mph    
Max Gust Speed -    
Visibility 10 miles    
Events      
Averages and records for this station are not official NWS values.
T = Trace of Precipitation, MM = Missing Value Source: NWS Daily Summary

Daily Weather History Graph

Daily Weather History Graph

Search for Another Location

Airport or City:

Trip Planner

Search our weather history database for the weather conditions in past years. The results will help you decide how hot, cold, wet, or windy it might be!

Date:

Astronomy

Feb. 15, 2014 Rise Set
Actual Time 6:51 AM CST 5:58 PM CST
Civil Twilight 6:26 AM CST 6:23 PM CST
Nautical Twilight 5:58 AM CST 6:51 PM CST
Astronomical Twilight 5:30 AM CST 7:19 PM CST
Moon 6:51 PM CST (2/15) 6:56 AM CST (2/15)
Length of Visible Light 11h 56m
Length of Day
11h 07m
Waxing Gibbous, 99% of the Moon is Illuminated
Feb 15
Waxing Gibbous
Feb 22
Last Quarter
Mar 1
New
Mar 8
First Quarter
Mar 16
Full

Hourly Weather History & Observations

Time (CST) Temp. Windchill Dew Point Humidity Pressure Visibility Wind Dir Wind Speed Gust Speed Precip Events Conditions
12:15 AM 40.6 °F - 37.8 °F 89% 30.03 in 10.0 mi Calm Calm - N/A   Clear
12:35 AM 37.6 °F - 35.4 °F 92% 30.03 in 10.0 mi Calm Calm - N/A   Clear
12:55 AM 36.5 °F - 34.5 °F 93% 30.05 in 10.0 mi Calm Calm - N/A   Clear
1:15 AM 37.4 °F - 35.6 °F 93% 30.05 in 10.0 mi Calm Calm - N/A   Clear
1:35 AM 36.1 °F - 34.7 °F 94% 30.05 in 10.0 mi Calm Calm - N/A   Clear
1:55 AM 35.2 °F - 33.8 °F 94% 30.06 in 10.0 mi Calm Calm - N/A   Clear
2:15 AM 34.7 °F - 33.3 °F 94% 30.05 in 10.0 mi Calm Calm - N/A   Clear
2:35 AM 34.2 °F - 32.9 °F 95% 30.05 in 10.0 mi Calm Calm - N/A   Clear
2:55 AM 32.9 °F - 32.0 °F 96% 30.07 in 10.0 mi Calm Calm - 0.01 in   Clear
3:15 AM 32.9 °F - 32.0 °F 96% 30.08 in 10.0 mi Calm Calm - N/A   Clear
3:35 AM 32.5 °F - 32.0 °F 98% 30.08 in 10.0 mi Calm Calm - N/A   Clear
3:55 AM 32.2 °F - 31.6 °F 98% 30.08 in 10.0 mi Calm Calm - N/A   Clear
4:15 AM 32.0 °F - 31.1 °F 96% 30.10 in 10.0 mi Calm Calm - N/A   Clear
4:35 AM 32.0 °F - 31.5 °F 98% 30.11 in 10.0 mi Calm Calm - N/A   Clear
4:55 AM 31.8 °F - 30.7 °F 96% 30.11 in 10.0 mi Calm Calm - N/A   Clear
5:15 AM 31.8 °F - 30.7 °F 96% 30.12 in 10.0 mi Calm Calm - N/A   Clear
5:35 AM 31.3 °F - 30.2 °F 96% 30.13 in 10.0 mi Calm Calm - N/A   Clear
5:55 AM 31.1 °F - 30.2 °F 96% 30.14 in 10.0 mi Calm Calm - N/A   Clear
6:15 AM 30.9 °F - 29.7 °F 95% 30.15 in 10.0 mi Calm Calm - N/A   Clear
6:35 AM 30.7 °F - 29.5 °F 95% 30.16 in 10.0 mi Calm Calm - N/A   Clear
6:55 AM 30.6 °F - 29.3 °F 95% 30.17 in 10.0 mi Calm Calm - N/A   Clear
7:15 AM 31.1 °F - 29.8 °F 95% 30.17 in 10.0 mi Calm Calm - N/A   Clear
7:35 AM 32.0 °F - 31.3 °F 97% 30.20 in 10.0 mi Calm Calm - N/A   Clear
7:55 AM 35.8 °F - 34.0 °F 93% 30.22 in 10.0 mi Calm Calm - N/A   Clear
8:15 AM 42.8 °F 41.1 °F 38.3 °F 84% 30.23 in 10.0 mi NE 3.5 mph - N/A   Clear
8:35 AM 45.3 °F 43.0 °F 37.0 °F 73% 30.23 in 10.0 mi ENE 4.6 mph - N/A   Clear
8:55 AM 46.6 °F - 35.8 °F 66% 30.23 in 10.0 mi NE 4.6 mph - N/A   Clear
9:15 AM 47.8 °F - 34.9 °F 61% 30.23 in 10.0 mi NE 8.1 mph - N/A   Clear
9:35 AM 49.1 °F - 34.3 °F 57% 30.24 in 10.0 mi ENE 8.1 mph - N/A   Clear
9:55 AM 50.7 °F - 35.1 °F 55% 30.24 in 10.0 mi ENE 6.9 mph - N/A   Clear
10:15 AM 52.0 °F - 34.3 °F 51% 30.24 in 10.0 mi NNE 8.1 mph - N/A   Clear
10:35 AM 52.7 °F - 33.6 °F 48% 30.24 in 10.0 mi NNE 5.8 mph - N/A   Clear
10:55 AM 54.1 °F - 32.9 °F 45% 30.24 in 10.0 mi East 8.1 mph - N/A   Clear
11:15 AM 55.6 °F - 33.1 °F 43% 30.22 in 10.0 mi Calm Calm - N/A   Clear
11:35 AM 57.2 °F - 32.5 °F 39% 30.21 in 10.0 mi East 3.5 mph - N/A   Clear
11:55 AM 57.6 °F - 32.7 °F 39% 30.20 in 10.0 mi ESE 5.8 mph - N/A   Clear
12:15 PM 57.9 °F - 30.7 °F 36% 30.21 in 10.0 mi Calm Calm - N/A   Clear
12:35 PM 59.4 °F - 30.6 °F 34% 30.19 in 10.0 mi SE 3.5 mph - N/A   Clear
12:55 PM 60.4 °F - 29.1 °F 31% 30.18 in 10.0 mi Calm Calm - N/A   Clear
1:15 PM 62.8 °F - 32.4 °F 32% 30.17 in 10.0 mi Calm Calm - N/A   Clear
1:35 PM 61.7 °F - 31.5 °F 32% 30.16 in 10.0 mi Calm Calm - N/A   Clear
1:55 PM 62.8 °F - 29.3 °F 28% 30.15 in 10.0 mi SE 4.6 mph - N/A   Clear
2:15 PM 64.0 °F - 31.3 °F 29% 30.14 in 10.0 mi ENE 3.5 mph - N/A   Clear
2:35 PM 63.9 °F - 32.5 °F 31% 30.13 in 10.0 mi South 3.5 mph - N/A   Clear
2:55 PM 64.4 °F - 33.1 °F 31% 30.12 in 10.0 mi ESE 4.6 mph - 0.01 in   Clear
3:15 PM 64.4 °F - 34.2 °F 32% 30.12 in 10.0 mi Calm Calm - N/A   Clear
3:35 PM 63.1 °F - 34.7 °F 35% 30.12 in 10.0 mi East 5.8 mph - N/A   Clear
3:55 PM 63.1 °F - 33.6 °F 33% 30.12 in 10.0 mi SE 6.9 mph - N/A   Clear
4:15 PM 62.6 °F - 32.7 °F 33% 30.12 in 10.0 mi SE 5.8 mph - N/A   Clear
4:35 PM 61.5 °F - 29.3 °F 30% 30.12 in 10.0 mi SE 5.8 mph - N/A   Clear
4:55 PM 61.0 °F - 31.5 °F 33% 30.12 in 10.0 mi SE 4.6 mph - N/A   Clear
5:15 PM 59.7 °F - 30.4 °F 33% 30.12 in 10.0 mi SE 3.5 mph - N/A   Clear
5:35 PM 56.7 °F - 34.0 °F 42% 30.12 in 10.0 mi Calm Calm - N/A   Clear
5:55 PM 51.8 °F - 36.9 °F 57% 30.13 in 10.0 mi Calm Calm - N/A   Clear
6:15 PM 49.1 °F - 40.3 °F 72% 30.13 in 10.0 mi Calm Calm - N/A   Clear
6:35 PM 45.7 °F - 41.0 °F 84% 30.12 in 10.0 mi Calm Calm - N/A   Clear
6:55 PM 43.9 °F - 40.3 °F 87% 30.13 in 10.0 mi Calm Calm - N/A   Clear
7:15 PM 42.4 °F - 39.2 °F 88% 30.12 in 10.0 mi Calm Calm - N/A   Clear
7:35 PM 41.7 °F - 38.5 °F 88% 30.12 in 10.0 mi Calm Calm - N/A   Clear
7:55 PM 40.6 °F 37.5 °F 37.9 °F 90% 30.13 in 10.0 mi South 4.6 mph - N/A   Clear
8:15 PM 47.7 °F - 38.7 °F 71% 30.14 in 10.0 mi Calm Calm - N/A   Clear
8:35 PM 42.3 °F - 38.3 °F 86% 30.14 in 10.0 mi Calm Calm - N/A   Clear
8:55 PM 41.2 °F - 37.8 °F 88% 30.15 in 10.0 mi Calm Calm - N/A   Clear
9:15 PM 40.1 °F - 37.8 °F 91% 30.15 in 10.0 mi Calm Calm - N/A   Clear
9:35 PM 39.7 °F - 37.6 °F 92% 30.15 in 10.0 mi Calm Calm - N/A   Clear
9:55 PM 39.4 °F - 37.8 °F 94% 30.15 in 10.0 mi Calm Calm - N/A   Clear
10:15 PM 38.3 °F - 36.5 °F 93% 30.15 in 10.0 mi Calm Calm - N/A   Clear
10:35 PM 38.1 °F - 36.7 °F 95% 30.14 in 10.0 mi Calm Calm - N/A   Clear
10:55 PM 36.9 °F - 35.2 °F 94% 30.15 in 10.0 mi Calm Calm - N/A   Clear
11:15 PM 37.0 °F - 35.8 °F 95% 30.15 in 10.0 mi Calm Calm - N/A   Clear
11:35 PM 36.5 °F - 35.2 °F 95% 30.14 in 10.0 mi Calm Calm - N/A   Clear